Wind_Speed
25 26 27 28 29 29 29 29 29 29 29 29 29 28 28 27 26 25 24 23 23 23 23 22 22 21 20 19 18 18 18 18 18 18 18 18 18 18 19 19 19 20 20 20 20 21 21 22 22 22 22 23 23 23 23 23 23 23 23 23 24 24 24 24 24 25 25 25 26 26 27 27 27 28 28 29 29 30 30 30 30 30 30 30 30 31
26 27 27 28 29 29 30 29 29 29 29 29 29 28 28 27 26 25 24 23 22 22 21 21 20 19 18 18 17 17 17 17 17 17 18 18 18 19 19 20 20 20 20 21 21 21 21 21 21 21 22 22 22 22 22 22 22 22 23 23 24 24 24 25 25 25 26 26 27 27 28 28 28 29 29 30 30 30 30 30 30 30 31 31 31 31
26 27 28 28 29 29 29 29 29 29 28 28 28 28 27 27 26 25 24 23 21 20 20 19 19 18 18 17 17 17 17 17 17 17 18 18 19 19 20 20 20 20 20 20 20 20 20 20 20 20 20 20 20 20 20 20 21 22 22 23 24 24 24 25 26 26 27 28 28 28 29 29 30 30 30 30 30 30 31 31 31 31 31 31 31 31
27 27 28 28 29 29 29 29 29 29 28 28 28 27 27 26 25 25 23 22 21 20 19 18 18 18 18 17 17 17 17 17 18 18 18 19 19 19 19 19 19 18 18 18 17 17 17 17 18 18 18 18 18 19 19 20 21 22 22 23 24 24 25 26 27 28 29 29 30 30 30 30 30 31 31 31 31 31 31 31 31 31 31 31 31 31
27 27 28 28 28 29 29 29 28 28 28 28 27 27 26 25 25 24 23 22 21 20 19 19 18 18 18 18 17 17 17 18 18 18 19 19 18 18 17 17 16 16 15 15 15 15 15 15 16 16 17 17 18 18 19 20 21 22 23 24 25 25 26 27 28 28 29 30 30 30 30 30 31 31 31 31 31 31 32 31 32 32 31 31 31 30
27 27 27 27 28 28 28 28 28 28 28 28 27 26 25 24 24 23 23 22 22 21 20 19 19 18 18 18 18 18 18 18 18 18 18 18 17 16 15 15 15 14 14 14 14 14 15 15 16 17 17 18 18 19 20 20 21 22 23 24 25 26 27 28 28 29 30 30 30 30 30 30 30 31 31 31 31 31 32 31 31 31 30 30 30 30
27 27 26 26 27 27 28 28 27 27 27 26 26 25 25 24 23 23 23 23 23 22 21 20 19 18 18 18 18 18 19 19 18 18 17 16 16 15 15 15 15 15 15 15 16 16 17 17 18 18 19 19 19 19 20 20 21 22 23 24 25 26 27 28 29 29 30 30 31 31 31 31 31 31 31 31 31 31 31 31 30 30 29 29 29 29
26 26 25 25 26 27 27 27 27 26 25 24 24 24 24 24 24 24 24 24 23 23 22 21 20 19 18 18 19 19 19 19 19 18 17 17 17 17 17 18 18 18 18 18 18 19 19 19 19 19 19 19 19 19 19 20 20 21 22 23 24 25 26 27 28 29 29 30 31 31 31 32 32 32 31 31 31 31 31 30 29 29 28 28 28 28
25 25 25 25 25 26 27 27 26 25 24 22 22 22 23 24 25 25 25 25 24 23 23 22 21 20 20 20 20 21 20 20 19 19 19 19 19 20 20 20 20 20 20 20 20 20 20 20 20 19 19 18 18 18 18 19 19 20 21 23 23 24 25 26 27 28 28 29 30 30 31 31 31 31 31 31 31 30 29 29 28 28 28 27 27 27
23 24 24 25 26 26 26 26 26 24 22 21 21 21 22 24 25 26 25 25 24 23 22 22 22 23 22 22 22 22 22 22 21 21 21 21 22 22 22 23 23 22 22 22 21 21 20 20 19 19 18 17 17 17 18 18 19 20 22 23 24 25 25 26 27 27 28 28 28 28 29 29 29 29 29 29 28 28 27 27 27 27 27 27 27 27
23 23 24 25 25 26 26 25 25 23 22 21 22 22 23 24 24 25 25 25 24 23 22 22 23 24 25 25 24 23 23 23 24 23 23 23 24 24 24 25 24 24 23 23 22 21 20 20 19 18 18 17 18 18 19 19 20 21 22 23 24 25 26 26 27 27 27 27 27 27 27 27 27 27 27 27 26 26 26 27 27 27 28 28 28 28
22 23 23 24 25 25 25 24 23 22 21 21 21 21 21 23 23 22 22 23 23 23 23 23 24 24 25 25 25 24 24 25 25 26 26 26 26 27 27 27 27 26 25 24 23 21 20 20 19 19 18 18 19 19 20 21 22 22 23 24 24 25 25 26 26 26 26 26 26 26 26 26 26 26 26 26 27 27 27 27 28 28 28 29 29 29
22 22 23 24 24 24 23 21 19 18 19 20 20 21 21 22 22 21 20 20 21 21 22 24 24 24 24 25 25 25 25 25 25 26 26 27 28 28 29 29 28 27 26 25 24 22 21 21 20 20 19 20 20 21 21 22 23 23 24 24 24 25 25 25 25 25 25 25 25 26 26 26 26 26 27 27 27 28 28 28 29 29 29 30 30 30
21 22 22 23 22 20 19 17 17 18 19 20 21 22 22 21 21 20 19 20 20 20 21 22 23 23 23 23 24 24 24 24 24 25 25 26 27 28 29 29 29 28 27 26 25 23 22 22 21 21 21 21 21 22 22 23 23 23 24 24 24 24 24 24 24 24 24 24 25 25 26 26 27 27 27 27 28 28 29 29 29 30 30 30 30 30
20 20 20 19 17 17 16 16 18 19 20 22 22 22 21 20 19 19 19 20 20 20 21 21 22 22 22 22 22 23 24 24 24 24 25 26 27 28 29 29 29 28 27 27 26 25 23 23 23 23 22 22 22 22 23 23 23 23 23 23 23 23 23 23 23 23 23 24 24 25 26 26 27 27 27 27 28 28 29 29 29 30 30 30 30 31
18 18 17 17 17 17 17 18 20 21 22 22 22 21 19 18 18 18 18 19 20 21 21 22 23 23 22 22 22 22 22 23 23 24 26 28 28 29 29 29 29 29 28 27 27 26 25 24 24 24 24 24 24 23 24 24 24 24 24 23 23 23 23 23 22 22 22 23 23 24 25 25 26 26 27 27 28 28 29 29 29 30 30 30 31 31
17 17 17 18 18 18 18 19 20 21 22 21 21 19 18 18 18 18 19 20 21 21 21 22 23 23 23 23 22 22 23 24 25 27 28 29 30 29 29 28 29 30 29 28 27 27 26 26 26 26 26 26 26 26 25 25 25 24 24 24 23 23 22 22 22 22 22 22 23 24 24 25 25 26 26 27 27 28 28 29 29 29 30 30 31 31
17 17 17 18 18 18 18 19 20 21 21 20 19 19 18 18 18 19 20 21 22 22 22 23 24 24 24 25 24 24 25 26 27 28 29 31 31 30 29 28 28 29 29 29 28 28 28 28 29 29 29 29 28 28 27 27 26 25 25 24 23 22 22 22 22 22 22 23 23 24 24 25 25 26 26 27 27 27 28 28 28 29 30 30 30 31
18 18 18 18 19 19 20 20 20 20 20 19 18 18 18 18 19 20 21 21 22 23 24 24 24 25 25 26 27 27 27 27 28 28 29 32 33 31 28 28 28 28 29 29 29 29 29 30 31 31 31 30 30 30 29 28 27 26 25 24 23 23 22 22 22 22 23 23 23 24 24 25 25 26 26 26 27 27 27 28 28 29 29 30 30 31
19 19 20 20 21 21 21 21 21 20 19 18 17 17 19 20 21 21 22 23 23 24 25 26 26 26 27 29 30 29 29 28 29 29 30 32 33 31 28 27 28 29 30 30 30 30 31 32 32 32 32 32 31 31 30 30 29 27 26 25 24 24 23 23 23 23 23 23 23 24 24 25 25 25 26 26 26 27 27 27 28 28 29 29 30 30
22 23 22 22 22 22 22 21 21 20 17 16 16 18 20 21 22 22 23 24 25 25 25 26 26 27 29 30 31 31 30 29 29 29 30 31 32 30 28 27 28 29 30 31 31 31 32 33 34 34 34 33 32 32 31 30 29 28 27 26 26 25 25 24 24 24 24 24 24 24 24 25 25 25 26 26 26 26 27 27 27 28 28 29 29 30
23 24 24 24 23 23 22 22 20 17 15 15 17 19 21 22 22 23 23 24 25 25 26 27 28 30 31 32 32 32 30 28 27 27 29 30 31 31 28 27 27 28 30 31 31 32 32 33 34 34 34 34 33 32 31 30 29 29 28 27 27 26 26 26 25 25 25 25 25 24 25 25 25 25 26 26 26 27 27 27 28 29 29 30 30 30
23 24 23 23 22 21 20 18 16 15 15 16 18 20 20 21 21 22 23 25 27 28 29 31 32 32 32 32 31 30 28 27 26 25 26 28 29 29 27 26 27 28 29 30 31 31 32 32 33 34 34 34 33 32 31 30 29 29 28 28 28 28 27 27 26 26 26 25 25 26 26 26 27 27 28 28 28 29 29 29 30 30 31 31 31 32
22 22 22 21 20 18 17 16 15 16 16 17 18 19 20 20 22 23 25 28 30 31 32 31 31 30 30 30 29 28 26 25 24 24 24 25 27 28 27 26 26 27 29 29 29 30 31 32 33 34 34 33 33 31 30 29 29 29 29 29 28 28 28 27 27 27 27 27 27 27 27 27 28 28 28 29 29 29 29 30 30 30 30 31 31 32
21 21 20 19 17 16 15 15 15 15 16 17 19 20 22 24 26 27 28 29 30 29 29 28 28 28 29 28 28 27 25 25 24 23 23 25 26 27 27 26 26 27 28 29 29 29 30 32 33 33 33 33 32 31 30 29 29 29 29 29 28 28 28 27 27 27 27 26 26 26 26 26 25 25 25 25 26 26 26 27 27 28 28 29 29 30
20 19 17 16 15 14 14 15 16 17 18 19 21 23 24 26 27 27 27 27 27 26 25 25 26 27 28 28 28 27 25 24 23 23 23 23 25 27 28 27 26 27 29 30 30 30 30 32 33 33 33 33 32 32 31 31 30 30 29 29 28 28 27 26 26 26 25 24 24 24 23 23 22 22 23 23 23 23 24 24 25 25 26 27 28 28
17 17 16 15 15 16 17 18 18 18 19 20 21 22 24 25 26 26 26 25 24 24 24 24 25 27 27 27 27 26 25 23 22 21 22 22 25 27 28 27 27 27 29 30 30 31 31 32 33 33 33 33 33 33 33 33 32 31 30 29 28 27 26 25 25 24 24 23 23 23 23 23 23 22 23 23 23 23 23 24 24 25 25 26 28 29
16 16 16 17 17 17 17 18 18 18 19 19 21 22 23 24 24 24 24 23 23 22 23 23 24 24 25 26 26 26 25 24 22 21 21 22 24 26 27 27 27 27 29 30 32 32 32 32 32 32 32 32 33 34 34 34 33 32 31 30 29 27 26 25 25 25 24 24 24 24 24 24 24 23 23 23 23 23 23 24 24 24 25 26 28 29
15 15 15 15 15 15 16 16 17 17 18 20 21 22 22 23 22 22 22 22 21 21 21 22 22 22 23 24 26 27 26 24 22 21 22 23 25 26 27 26 26 27 28 30 32 33 31 30 29 28 29 31 32 33 34 35 34 33 32 31 30 29 28 28 27 26 26 26 25 25 25 24 24 24 24 23 23 23 23 23 23 23 24 25 27 28
12 12 12 12 13 14 15 16 17 18 19 20 20 21 21 21 21 21 20 20 19 19 20 20 21 21 22 23 25 26 25 23 22 23 24 24 25 27 27 26 26 26 27 29 30 31 31 30 28 27 28 30 32 34 34 35 34 34 34 33 33 32 31 30 29 29 28 27 27 26 25 24 24 23 23 22 22 22 21 21 21 22 23 25 26 27
10 10 11 12 13 15 16 17 18 18 19 19 20 20 20 20 19 19 18 18 18 17 18 19 19 20 20 21 22 23 24 24 24 24 25 25 26 27 27 27 27 27 26 26 27 28 29 31 31 30 30 31 33 34 34 34 34 34 34 34 34 34 33 32 32 31 30 29 28 27 25 24 23 22 21 21 20 19 19 18 19 20 22 24 25 26
11 12 13 14 15 16 17 18 18 19 19 19 19 19 19 19 18 17 17 17 16 16 17 17 18 19 19 20 21 24 26 27 26 25 24 25 26 27 27 27 27 27 27 25 25 25 26 29 33 34 33 33 33 34 34 34 34 34 33 34 34 34 34 33 33 32 31 30 28 27 25 23 22 21 20 19 19 18 17 17 17 18 19 22 23 24
12 13 13 14 15 16 17 18 19 19 19 19 19 19 18 18 17 16 16 16 16 16 16 16 17 19 20 21 23 26 28 28 26 25 24 24 26 27 26 27 28 28 28 27 26 25 27 30 34 36 35 34 34 34 34 34 33 33 33 33 34 35 35 34 34 33 32 31 29 27 25 24 22 21 20 19 18 17 17 16 16 16 18 19 21 22
12 13 13 14 15 16 17 18 18 19 19 18 18 18 17 17 16 16 15 15 15 15 15 16 16 18 19 21 24 26 28 27 26 24 23 23 25 26 26 27 28 29 29 28 27 27 28 30 32 33 34 35 35 34 34 33 33 33 33 34 34 35 36 35 34 33 32 31 30 28 26 25 24 22 21 20 19 18 17 17 16 16 16 18 19 21
12 13 14 15 16 17 17 17 18 18 18 18 17 17 17 16 16 15 15 15 15 15 15 16 16 17 19 21 23 26 28 27 25 23 22 22 23 25 26 27 27 28 28 28 28 28 28 29 30 32 34 35 36 36 34 32 32 32 33 34 34 35 36 35 34 34 33 32 31 30 28 27 26 25 23 22 21 20 19 18 18 17 17 18 19 21
13 13 14 15 16 16 17 17 17 17 17 17 17 16 16 15 15 15 14 14 14 15 15 16 17 18 19 21 23 25 28 27 26 23 21 20 21 23 26 27 26 27 28 29 30 30 30 31 32 32 33 34 35 36 35 33 32 33 33 34 35 35 35 35 34 33 33 33 32 31 30 29 29 27 26 24 23 22 21 20 20 19 19 19 19 20
13 14 15 15 16 16 17 17 17 17 17 17 16 16 15 15 14 14 14 14 14 15 15 16 17 19 21 23 24 26 28 28 27 25 22 21 20 22 24 26 26 26 27 29 30 31 31 32 33 32 31 31 32 33 35 36 35 35 36 36 35 35 35 34 33 33 33 33 33 33 32 31 31 30 28 27 25 24 23 22 21 20 20 20 20 20
14 14 15 15 16 17 17 17 17 17 17 16 16 15 14 14 14 14 14 14 14 15 16 17 18 20 22 25 27 28 29 29 28 26 24 22 20 20 22 25 25 25 26 27 29 30 31 32 32 33 32 33 32 33 36 37 37 38 38 37 36 35 34 33 33 32 32 33 33 33 33 32 32 31 30 29 28 27 26 24 23 22 21 21 21 21
14 14 15 16 16 17 17 17 17 17 16 16 15 15 14 14 14 14 14 14 15 15 17 18 20 22 24 26 28 29 29 29 29 27 26 23 21 20 21 23 24 25 25 26 27 29 30 31 32 33 33 34 35 36 37 37 38 38 38 38 37 36 34 33 32 32 32 33 34 34 33 33 32 32 31 30 30 30 30 28 27 25 25 25 25 24
14 15 15 16 16 17 17 17 17 17 16 16 15 15 15 14 14 14 14 15 15 16 17 19 21 23 26 27 28 29 29 29 29 28 27 25 23 21 21 22 23 24 24 25 26 28 29 31 32 33 32 34 36 37 38 38 38 38 38 37 38 37 36 34 34 33 33 33 33 34 34 33 32 32 32 32 32 31 31 31 30 29 28 28 28 28
15 15 16 16 16 16 17 17 17 17 16 16 15 15 15 15 15 15 15 15 16 17 18 20 22 24 26 27 28 29 29 30 30 29 28 26 24 22 21 22 22 23 24 25 26 27 29 30 32 33 34 35 36 37 38 39 38 37 36 36 37 38 38 37 36 35 34 33 33 33 33 33 33 33 33 32 32 32 32 32 32 31 30 29 29 30
15 16 16 16 16 16 16 17 17 16 16 16 15 15 15 15 15 16 16 17 17 18 20 21 23 25 27 27 28 28 29 29 30 29 28 26 25 23 22 22 22 23 24 25 27 28 29 30 31 33 34 34 35 36 37 38 39 38 37 37 38 39 39 38 36 34 33 34 34 33 34 34 34 34 33 33 33 33 33 33 33 32 32 31 31 30
15 16 16 16 16 16 16 16 16 16 16 16 15 15 15 15 15 16 17 17 18 19 20 22 23 25 26 27 28 28 29 29 29 29 28 27 25 24 23 22 22 23 23 25 27 29 29 30 31 33 33 34 34 35 37 38 39 39 38 37 37 37 37 38 37 36 35 35 35 35 34 34 34 34 35 35 35 35 34 34 34 34 33 33 32 32
15 16 16 16 16 16 16 16 16 16 16 15 15 15 15 15 15 16 16 17 18 19 20 21 23 24 26 27 28 30 30 30 30 29 29 28 26 25 24 23 23 23 24 25 27 29 30 31 32 32 32 33 34 36 37 38 39 39 38 37 36 36 36 38 38 37 37 36 36 35 35 35 35 36 36 36 36 36 36 36 36 35 35 34 33 33
15 15 15 15 16 16 16 16 16 16 16 15 15 15 14 14 14 15 16 16 17 18 19 21 22 24 26 27 29 30 31 31 31 30 30 29 27 26 25 25 24 24 25 25 27 28 30 32 33 33 33 33 34 36 37 38 38 39 39 38 37 37 37 38 38 37 37 37 37 36 36 36 36 36 36 37 37 37 37 37 37 36 36 35 34 34
15 15 15 15 16 16 16 16 16 16 15 15 15 14 14 14 14 14 15 16 17 18 19 21 23 24 26 27 29 31 32 33 33 32 31 30 29 28 27 26 26 26 26 27 28 28 29 31 32 33 34 34 35 36 36 36 37 38 38 38 38 37 38 38 37 37 36 37 37 37 37 36 36 35 36 37 37 37 37 37 36 36 36 35 35 35
15 15 15 16 16 16 16 16 16 16 15 15 15 15 14 14 14 15 15 16 18 19 20 22 23 25 26 27 29 30 31 33 34 34 33 32 31 29 28 27 27 27 27 27 28 29 30 31 32 32 33 34 35 36 36 36 35 36 37 37 37 37 38 38 38 37 37 37 37 38 38 37 35 35 37 38 39 38 37 36 36 35 35 35 35 35
15 15 16 16 16 16 16 16 16 16 16 15 15 15 15 15 15 16 17 18 19 20 22 23 24 26 27 28 29 29 30 31 33 35 35 34 33 31 30 29 28 28 28 28 28 29 30 31 31 31 30 31 33 35 36 35 35 35 36 36 37 37 38 39 38 37 37 37 37 38 38 38 37 38 39 39 39 38 37 36 35 35 35 35 35 35
15 15 16 16 16 16 16 16 16 16 16 16 16 16 16 16 16 17 18 19 20 22 23 24 25 26 27 28 29 29 29 30 32 34 34 34 33 33 32 31 30 30 30 29 29 30 31 31 31 30 28 28 30 32 34 35 35 35 35 35 36 37 38 38 38 37 36 37 38 38 39 38 38 39 39 38 37 38 38 37 36 35 34 33 33 33
15 15 15 16 16 16 16 16 16 16 17 17 17 17 18 18 18 19 19 20 22 23 23 25 25 27 28 29 29 30 29 31 32 34 34 34 33 33 33 32 32 32 32 32 31 31 32 32 31 29 27 26 26 28 31 34 35 34 34 34 34 35 36 37 37 37 37 37 38 39 39 39 38 38 38 37 37 38 38 37 36 34 33 32 31 31
15 15 15 16 16 16 16 16 17 17 17 18 18 19 19 19 20 20 21 22 22 23 24 25 26 27 27 29 29 30 30 31 32 33 34 34 33 33 33 33 32 32 33 32 31 31 31 31 30 30 29 26 24 24 27 30 33 34 34 33 33 33 34 35 36 37 37 38 38 39 39 38 38 37 36 36 36 37 37 36 35 33 32 31 30 31
Wind_Direction
289 290 292 294 295 297 299 301 303 305 306 307 307 307 307 306 305 305 305 304 303 302 301 300 299 298 297 296 294 293 292 291 290 290 290 291 291 291 292 292 291 291 289 287 286 285 284 283 283 283 283 283 283 284 284 284 284 284 284 283 282 282 282 282 281 280 280 279 278 277 277 276 275 274 273 272 271 269 269 268 268 268 269 270 270 271
290 291 293 294 295 297 299 301 303 305 306 307 308 308 308 307 307 306 306 305 304 303 302 301 300 299 298 297 296 294 294 294 294 294 295 295 295 295 295 295 295 294 293 292 290 288 287 285 285 284 284 284 284 284 284 284 285 286 285 284 283 283 282 281 280 279 279 278 277 277 276 275 275 274 274 274 273 273 272 271 270 270 271 271 271 271
290 292 293 294 296 297 299 301 303 305 306 308 308 309 309 308 307 307 307 306 306 305 304 304 303 302 300 299 298 298 298 298 298 298 299 299 299 298 298 297 297 296 295 294 293 292 290 289 288 287 286 285 285 284 284 285 285 286 284 283 283 282 281 280 278 277 276 276 275 275 275 275 275 275 274 274 274 274 273 273 272 272 272 271 271 271
291 292 293 295 296 298 299 302 304 306 307 309 309 309 308 307 307 307 307 307 307 307 307 306 306 305 304 303 302 302 302 302 302 302 301 301 301 301 300 299 299 297 296 295 294 293 292 292 291 290 289 288 287 287 286 286 285 284 283 282 281 280 279 278 277 276 274 273 273 273 274 274 274 274 274 274 273 273 273 272 272 271 271 270 270 270
292 293 294 295 296 298 300 302 305 307 309 309 309 309 308 307 307 307 308 309 310 310 310 310 310 309 308 307 306 306 305 304 304 303 303 302 302 302 302 301 300 299 298 297 296 296 296 295 295 294 294 293 292 291 290 288 286 284 282 281 280 279 278 277 276 275 274 272 272 273 273 274 273 273 273 273 273 272 272 272 271 270 270 270 270 270
291 292 293 294 296 298 300 303 306 308 310 310 309 308 308 307 308 309 311 312 313 313 313 313 313 311 310 309 308 307 306 305 305 304 304 304 304 305 305 305 305 304 304 304 304 304 304 304 303 302 301 299 297 295 292 289 287 284 282 280 279 278 277 277 275 274 273 273 273 273 273 273 273 273 273 273 272 272 271 272 271 271 271 270 270 270
290 291 292 294 296 298 301 303 306 309 310 310 309 309 309 310 311 312 314 314 315 314 315 315 313 312 311 310 309 309 308 307 307 307 308 310 311 312 313 313 313 313 314 314 314 314 313 312 311 309 306 303 300 297 294 291 288 285 282 280 278 277 276 276 275 274 274 273 273 272 272 272 272 272 273 272 272 272 272 272 271 271 271 271 271 270
289 290 292 293 296 299 302 304 307 309 310 310 310 310 312 314 315 316 315 315 315 315 315 315 314 312 312 312 312 313 313 314 315 316 318 319 321 322 322 322 321 322 321 321 320 318 317 316 314 312 309 306 302 299 296 293 290 288 285 283 282 281 279 278 278 277 276 276 275 274 273 272 272 272 272 272 272 272 272 271 272 272 271 271 271 271
288 291 293 294 297 300 303 305 308 310 311 310 311 313 315 316 317 317 316 315 315 315 316 316 316 315 315 316 318 320 321 323 324 325 326 327 327 327 326 325 325 325 324 323 321 320 318 317 315 312 310 307 304 300 297 295 293 291 289 288 287 285 284 283 282 280 279 278 277 276 275 274 273 272 272 272 272 272 272 272 272 272 271 271 271 271
289 292 295 297 299 302 304 307 309 311 311 313 314 315 317 317 316 316 314 313 314 315 317 318 319 320 320 322 325 327 328 328 328 328 329 328 328 327 327 326 326 325 324 323 322 320 319 318 316 313 310 307 304 301 299 297 295 293 292 291 289 288 287 285 284 283 281 280 279 277 276 274 273 273 273 273 273 273 273 272 272 272 271 271 270 270
292 294 296 299 302 304 306 308 310 312 314 316 317 317 317 316 315 314 313 312 314 317 319 320 321 322 323 326 329 331 332 330 329 329 328 328 328 327 327 327 326 325 324 323 322 321 320 319 316 313 310 307 305 302 300 298 297 295 293 292 290 289 288 286 285 284 283 281 280 278 276 275 274 274 273 273 273 273 273 272 272 271 270 269 269 268
294 296 298 300 303 306 309 312 314 316 316 316 316 315 315 315 315 313 311 311 313 316 319 320 320 322 323 325 328 331 331 329 327 326 327 327 328 327 327 326 326 325 324 323 323 322 322 319 316 314 311 308 305 303 301 299 297 296 294 293 291 289 288 286 285 284 283 282 280 278 277 276 276 275 274 274 273 272 271 271 270 269 269 268 268 267
295 297 299 302 304 308 312 314 314 312 311 311 312 312 312 313 313 313 311 310 311 314 317 317 318 319 322 325 326 327 326 324 323 323 323 323 324 324 323 322 323 323 324 323 323 323 322 319 316 314 311 308 305 303 301 299 298 296 295 294 293 291 289 287 286 285 283 282 280 279 278 277 276 275 274 274 273 272 271 270 270 269 269 269 269 268
296 299 301 303 305 307 310 309 305 303 304 307 309 311 311 312 313 313 312 310 311 313 314 313 312 313 316 320 323 323 322 320 319 318 317 317 318 318 318 317 318 321 322 322 322 322 323 320 317 314 312 309 306 304 303 301 300 299 298 297 296 294 292 291 289 287 285 283 281 279 278 277 276 276 275 274 274 273 272 272 271 271 270 270 270 269
297 300 301 301 301 301 300 298 298 299 302 306 309 310 310 311 312 312 310 308 309 311 312 310 310 310 312 315 318 320 318 316 314 312 312 312 314 316 316 314 315 318 321 320 321 322 322 320 318 316 313 311 309 307 306 304 303 302 301 300 299 298 296 295 293 290 287 285 283 280 279 278 277 276 276 275 275 274 274 273 273 272 272 271 271 270
296 297 297 297 297 296 294 294 296 299 303 306 307 308 308 307 308 308 306 306 308 310 311 311 311 311 311 314 317 318 315 312 310 309 309 309 312 315 315 313 313 315 319 321 321 322 322 321 319 317 315 313 312 311 309 308 307 306 305 304 302 301 299 297 295 292 289 287 285 283 282 280 279 278 277 276 275 275 274 274 273 273 272 272 271 271
296 296 295 295 295 294 294 295 298 301 303 304 305 305 305 305 305 306 305 307 308 308 309 309 310 310 310 313 316 316 313 310 308 307 307 307 311 316 316 313 312 314 319 321 322 322 322 321 320 318 316 315 314 314 312 311 310 309 308 306 305 303 301 298 296 294 292 290 288 285 283 282 280 279 278 277 276 275 275 274 274 273 273 272 272 271
294 293 292 292 292 293 295 297 298 300 302 302 303 304 305 305 305 306 306 307 307 307 307 308 308 307 306 308 310 311 311 308 306 306 306 307 311 316 317 314 313 314 318 321 322 322 321 321 320 319 318 317 317 316 315 315 314 313 312 310 308 306 303 301 298 296 294 291 289 286 284 282 280 279 278 277 276 276 275 274 274 273 273 272 272 271
288 287 287 288 290 291 293 295 296 298 299 301 302 303 303 304 305 306 305 306 306 306 306 305 304 303 302 302 305 308 308 306 305 305 304 306 311 317 318 315 314 314 318 320 321 321 321 321 320 319 319 319 319 319 318 318 318 317 316 314 312 310 307 304 301 298 295 292 290 287 285 282 281 279 278 277 276 275 275 274 273 273 272 272 271 271
284 283 284 286 289 291 292 293 294 296 298 301 304 305 303 304 305 306 305 307 306 305 305 303 302 301 300 300 303 306 307 306 304 304 304 306 311 316 317 315 314 315 317 318 320 321 321 321 321 320 320 320 321 321 321 321 320 320 319 317 315 312 309 306 302 299 297 294 291 289 286 284 282 280 279 277 276 275 274 274 273 273 273 272 272 272
284 284 286 288 289 289 290 291 294 297 300 306 309 309 307 307 306 306 307 307 306 304 302 300 298 298 298 299 301 304 308 306 304 303 304 307 311 315 317 315 314 314 315 317 319 321 321 320 320 320 321 321 322 322 322 322 321 321 319 318 316 313 310 307 304 301 298 296 294 292 289 287 285 284 283 281 279 278 276 275 275 274 274 273 272 272
284 284 286 286 287 288 289 293 298 304 310 316 315 313 311 310 309 308 307 304 301 299 297 295 295 295 297 298 302 306 309 307 305 304 306 307 310 314 317 315 313 313 313 315 318 320 319 318 318 318 319 320 321 322 322 322 321 320 319 318 316 314 312 309 306 303 300 298 297 295 293 292 290 288 287 286 283 281 278 276 275 274 273 272 271 270
285 285 287 288 289 290 294 300 307 314 320 319 315 313 311 309 306 302 299 296 295 294 294 294 296 298 301 303 306 309 310 309 308 307 306 304 306 311 315 314 313 311 311 313 315 316 316 315 315 316 317 319 320 321 321 321 321 320 320 318 317 316 314 311 308 305 303 301 299 298 296 294 292 289 287 285 282 279 277 275 274 273 272 271 269 268
288 288 289 290 292 296 302 308 315 319 317 312 307 303 299 295 292 290 289 291 292 295 296 298 300 302 305 307 309 310 311 311 310 309 307 304 305 308 312 313 311 310 310 312 313 313 313 313 313 314 315 317 319 320 321 322 322 322 321 320 319 318 316 313 310 308 305 302 300 297 294 291 288 285 283 280 278 277 275 274 273 272 272 272 271 270
286 287 288 291 296 301 305 307 305 300 295 291 288 286 285 285 286 288 291 294 297 299 301 301 301 302 305 308 309 310 311 313 312 311 309 306 306 309 311 312 311 309 309 311 312 312 311 311 312 313 313 316 318 320 322 323 323 323 323 322 321 320 318 315 312 308 305 302 299 296 293 290 288 285 283 281 280 278 277 276 275 274 274 274 274 274
281 282 285 288 290 290 285 280 277 276 276 278 281 285 288 291 294 296 299 300 301 301 301 300 299 301 305 308 309 310 313 314 314 314 313 309 307 308 311 312 312 310 309 310 311 311 310 309 311 312 314 316 319 322 323 324 325 325 325 324 322 321 319 317 314 311 309 307 304 302 300 298 296 294 292 290 287 285 283 281 279 278 278 278 277 276
278 279 279 279 277 275 274 274 276 279 283 287 292 296 299 300 301 301 301 301 301 301 299 297 298 301 305 307 309 311 314 315 315 315 315 311 307 307 310 313 312 310 309 310 310 310 309 309 311 313 315 318 321 322 323 324 324 325 324 324 323 322 322 321 319 318 316 315 313 311 308 306 304 301 298 296 293 291 288 285 283 282 281 280 279 278
276 275 275 274 275 276 279 284 289 293 296 299 302 303 303 302 300 298 298 300 300 299 297 296 297 300 303 306 310 313 315 316 317 317 317 313 307 305 309 312 311 309 309 309 310 311 310 310 312 315 317 318 319 320 321 322 323 324 325 326 326 327 326 326 325 323 321 319 317 315 313 310 307 304 301 298 294 292 289 286 284 281 280 279 278 277
272 271 271 273 277 283 288 293 297 300 302 304 304 303 302 300 299 298 299 300 299 297 296 297 299 300 303 307 312 316 317 318 319 320 318 313 308 307 309 310 310 310 311 311 312 313 312 311 312 313 314 316 316 317 319 322 324 325 327 329 329 329 329 328 327 325 323 321 319 318 315 313 309 305 302 298 295 292 288 286 283 281 279 277 276 275
277 276 278 284 291 297 301 303 304 305 305 305 304 303 302 301 301 300 300 300 298 297 297 299 301 303 306 309 312 314 316 317 319 319 318 313 309 308 310 310 310 310 311 312 313 313 312 313 312 312 312 313 315 317 319 322 324 326 328 329 329 329 329 329 327 325 324 322 320 319 317 314 311 307 304 301 298 294 291 287 285 282 280 278 276 274
303 302 303 304 306 306 306 306 306 306 305 305 304 304 303 302 301 301 300 299 298 298 300 301 303 305 306 307 306 306 309 315 319 320 319 313 309 308 310 309 309 310 310 309 309 309 310 311 313 314 313 313 314 317 319 321 323 324 325 326 326 327 328 327 325 324 323 322 320 319 318 316 313 311 308 306 302 299 295 291 288 284 281 279 277 276
314 312 311 310 309 308 307 307 306 306 305 305 304 303 303 302 301 301 300 299 300 301 303 304 306 308 308 305 302 302 307 315 321 323 320 313 309 307 308 307 307 308 309 307 304 301 301 304 309 313 314 313 314 316 318 320 321 321 322 322 322 324 325 324 323 321 321 321 321 320 319 318 317 315 313 310 307 304 301 297 293 288 283 280 278 276
312 310 310 309 308 307 307 307 307 306 305 305 304 303 303 302 302 302 301 302 303 304 306 306 308 310 311 310 309 309 313 319 323 325 320 312 307 306 306 306 305 306 307 307 303 298 296 298 304 309 312 312 312 313 316 317 319 320 319 318 319 320 323 323 322 321 321 322 322 322 322 322 320 319 316 314 312 309 306 302 298 293 288 283 281 279
310 309 309 309 308 308 307 307 306 306 305 305 304 304 303 303 302 302 302 302 303 305 307 308 310 311 313 313 313 316 320 323 326 325 320 312 307 305 305 304 304 304 306 305 303 301 298 298 301 304 307 310 311 312 313 315 317 318 317 316 316 317 320 322 322 321 322 322 322 323 324 324 323 322 319 317 315 313 310 306 302 298 293 289 286 284
309 309 309 309 309 308 308 307 307 307 307 306 305 304 304 303 302 302 301 302 303 305 308 310 312 313 314 313 313 316 321 326 328 327 323 316 311 308 306 304 303 304 303 302 302 300 299 299 300 301 303 306 309 312 313 314 315 315 315 315 315 316 318 319 320 320 321 321 321 322 323 324 324 322 321 319 318 316 313 309 306 303 299 293 288 285
309 310 310 310 310 309 310 310 309 309 308 307 306 305 304 303 302 301 301 301 303 305 308 310 313 315 315 315 315 318 322 328 332 333 330 323 317 311 306 304 303 303 301 301 300 300 299 299 301 302 302 302 305 309 313 315 315 314 314 314 315 315 317 318 319 319 319 319 320 321 322 322 322 321 321 320 319 317 314 311 308 305 302 298 291 285
311 311 311 311 312 312 312 312 312 310 308 307 307 306 305 303 301 301 301 301 302 304 306 309 312 315 317 318 319 321 326 331 335 337 335 330 322 313 307 305 305 304 301 299 300 300 300 299 300 301 299 299 300 303 309 314 315 315 314 315 315 315 316 318 319 318 317 317 317 319 320 320 319 319 319 320 319 317 314 311 309 307 304 301 297 292
312 313 314 314 314 314 314 314 313 312 310 309 309 308 306 303 302 301 301 301 302 303 305 308 311 314 317 319 322 325 329 333 336 338 337 333 327 318 310 307 307 307 305 302 301 300 299 297 296 297 299 299 300 302 306 310 311 313 315 317 317 316 316 318 318 317 315 314 314 316 317 317 317 317 317 318 318 317 314 313 311 310 308 306 302 299
315 316 316 316 316 316 315 315 314 314 313 312 312 310 308 306 304 303 302 302 302 303 305 308 311 314 316 319 323 327 332 335 337 338 337 334 330 323 315 310 309 309 310 308 305 301 298 295 294 294 296 298 301 304 308 309 309 310 313 316 317 318 318 317 316 313 312 311 312 313 314 315 316 315 315 316 316 315 314 314 313 312 311 309 307 303
318 318 318 318 318 317 316 316 316 316 316 315 315 313 312 310 307 306 304 303 303 304 306 309 312 314 317 321 325 330 334 337 338 338 336 334 331 326 319 313 311 312 313 311 307 303 300 297 296 295 295 296 298 302 306 307 309 309 310 310 311 314 318 317 315 313 312 312 312 312 313 314 314 314 313 313 312 311 311 311 311 311 311 309 307 304
320 319 319 319 319 318 317 317 317 318 318 319 318 317 314 312 309 306 305 304 305 307 309 312 314 316 319 323 327 332 336 338 339 338 336 334 332 328 322 317 315 314 314 312 309 306 302 299 298 298 298 299 300 302 303 306 308 308 307 305 306 310 314 316 315 315 314 313 313 312 312 312 311 311 311 310 309 309 309 308 308 309 309 307 305 302
322 321 320 320 320 319 319 319 320 321 321 322 322 319 316 313 309 307 305 306 308 310 312 314 316 318 320 325 329 333 337 338 338 337 336 335 332 329 324 321 318 317 315 312 310 308 306 304 301 300 300 301 301 300 301 305 308 309 307 305 306 309 312 314 315 315 313 311 311 311 310 310 309 309 309 309 308 308 309 308 307 306 306 304 303 301
324 323 322 322 322 321 322 323 324 325 325 324 323 320 317 315 313 311 310 310 311 312 314 315 317 320 325 329 332 335 337 337 337 337 336 336 334 331 327 324 321 319 317 313 310 309 310 308 304 302 303 304 302 299 298 302 306 308 308 308 306 304 303 308 313 315 312 310 310 311 311 311 311 310 310 309 308 308 308 307 307 306 305 303 302 301
325 325 325 325 325 325 326 327 328 328 328 327 325 323 321 319 317 316 314 314 315 316 317 318 321 325 329 333 335 336 336 336 336 337 337 337 336 334 330 327 325 322 319 314 310 309 310 309 307 306 306 305 301 299 298 300 303 306 308 310 307 302 299 303 308 311 311 312 312 313 313 313 312 311 309 308 307 307 307 306 306 306 306 305 303 301
327 327 327 328 329 329 330 330 330 331 331 331 329 328 326 325 323 321 320 320 320 321 322 325 328 330 330 332 335 337 335 335 336 336 337 337 337 335 333 330 327 325 322 318 314 312 309 307 308 310 310 306 301 298 297 298 301 304 307 309 308 305 303 305 307 308 308 310 312 313 315 315 312 309 306 305 305 305 305 304 304 304 304 304 303 302
328 328 330 331 331 332 333 333 334 335 336 336 335 334 332 331 329 327 325 325 326 327 328 330 332 333 331 332 334 336 335 335 335 336 337 337 337 336 334 332 330 327 323 321 318 316 313 310 310 311 310 307 303 300 299 299 299 301 304 307 307 306 305 306 306 307 307 308 310 312 315 315 311 306 303 303 303 304 303 302 301 301 301 302 302 301
328 329 331 333 334 334 335 336 337 338 338 339 338 338 337 335 333 331 329 329 329 330 331 333 334 334 331 332 333 334 333 333 334 336 337 338 337 336 335 333 331 329 326 323 320 318 316 315 315 312 308 303 300 300 302 302 301 301 303 305 306 305 303 304 306 308 308 307 308 311 314 313 308 304 303 304 303 302 301 300 300 299 299 299 299 299
330 331 333 334 336 336 337 337 337 338 339 338 338 337 337 336 334 332 331 330 330 331 333 334 335 334 332 333 334 334 332 331 332 333 335 336 337 337 336 334 332 331 328 326 323 320 319 318 317 314 309 303 299 300 303 305 304 303 303 304 304 303 302 304 307 308 308 307 309 311 312 309 306 305 305 304 302 300 299 299 299 298 298 297 297 297
331 332 333 335 336 337 337 336 336 336 337 336 335 334 333 332 331 330 329 329 330 331 333 334 333 332 331 331 333 334 332 330 330 332 332 333 335 336 336 335 334 332 331 329 326 324 323 321 318 315 310 305 302 301 303 305 306 305 304 303 302 301 301 304 306 307 307 307 308 310 309 308 306 306 305 302 299 298 298 298 298 297 297 297 296 296
330 331 332 333 335 335 335 335 335 335 334 333 332 330 329 327 327 326 327 327 329 331 333 333 333 331 330 330 332 332 331 329 329 329 330 331 332 332 333 334 334 333 331 329 327 326 324 321 319 316 313 308 304 301 302 303 305 304 302 300 299 299 299 301 304 306 306 307 307 308 308 307 306 305 303 299 297 297 298 298 297 297 297 297 296 295
329 329 330 331 332 333 334 334 334 333 332 330 329 328 326 325 325 325 326 327 329 330 331 332 332 331 329 329 330 330 329 328 327 327 328 330 330 331 331 332 331 330 327 324 322 321 319 317 315 314 313 312 308 303 300 300 301 301 299 298 298 299 299 300 303 305 306 307 307 307 306 305 304 303 301 299 297 296 297 296 296 296 296 296 294 293
Height
1501 1501 1500 1499 1499 1498 1497 1497 1496 1495 1494 1493 1493 1492 1491 1490 1489 1488 1487 1487 1486 1484 1483 1482 1481 1480 1479 1478 1477 1476 1475 1474 1473 1472 1471 1471 1470 1469 1468 1468 1467 1466 1466 1465 1464 1464 1463 1462 1462 1461 1461 1460 1459 1459 1458 1458 1457 1457 1457 1456 1456 1456 1455 1455 1455 1454 1454 1454 1453 1453 1452 1452 1452 1451 1451 1450 1450 1450 1449 1449 1449 1449 1449 1448 1448 1448
1499 1499 1498 1497 1497 1496 1495 1495 1494 1493 1492 1491 1490 1489 1488 1487 1487 1486 1485 1485 1484 1483 1482 1480 1479 1478 1477 1477 1475 1474 1473 1472 1472 1471 1470 1469 1468 1467 1467 1466 1465 1464 1464 1463 1462 1462 1461 1460 1460 1459 1458 1458 1457 1457 1456 1456 1455 1455 1454 1454 1453 1453 1453 1452 1452 1452 1451 1451 1450 1450 1449 1449 1448 1448 1448 1447 1447 1447 1447 1446 1446 1446 1446 1446 1446 1445
1497 1497 1496 1496 1495 1494 1493 1492 1492 1491 1490 1489 1488 1487 1486 1485 1484 1483 1483 1482 1482 1481 1480 1479 1477 1477 1476 1475 1474 1473 1472 1471 1470 1469 1468 1467 1467 1466 1465 1464 1463 1462 1462 1461 1460 1460 1459 1458 1458 1457 1457 1456 1455 1455 1454 1454 1453 1453 1452 1452 1451 1451 1450 1450 1449 1449 1448 1448 1447 1447 1446 1446 1445 1445 1445 1444 1444 1444 1444 1443 1443 1443 1443 1443 1442 1442
1496 1495 1494 1494 1493 1492 1491 1491 1490 1489 1488 1487 1486 1485 1484 1483 1482 1481 1481 1480 1479 1479 1478 1477 1476 1475 1474 1473 1472 1471 1470 1469 1468 1467 1467 1466 1465 1464 1463 1462 1462 1461 1460 1459 1459 1458 1457 1457 1456 1455 1455 1454 1453 1453 1452 1452 1451 1450 1450 1449 1449 1448 1447 1447 1446 1446 1445 1444 1444 1443 1443 1443 1442 1442 1442 1441 1441 1441 1440 1440 1440 1440 1440 1439 1439 1439
1494 1493 1492 1492 1491 1490 1489 1488 1488 1487 1486 1485 1484 1483 1482 1481 1480 1479 1478 1478 1477 1477 1476 1475 1474 1473 1472 1471 1470 1470 1469 1468 1467 1466 1465 1464 1463 1462 1462 1461 1460 1459 1458 1458 1457 1457 1456 1455 1454 1453 1453 1452 1451 1451 1450 1449 1448 1448 1447 1446 1446 1445 1444 1444 1443 1442 1442 1441 1441 1440 1440 1439 1439 1439 1438 1438 1437 1437 1437 1437 1437 1437 1436 1436 1436 1436
1492 1492 1491 1490 1489 1488 1487 1486 1486 1485 1484 1482 1482 1481 1480 1479 1478 1477 1477 1476 1475 1474 1473 1473 1472 1472 1471 1470 1469 1468 1467 1466 1465 1464 1463 1462 1462 1461 1460 1459 1458 1457 1457 1456 1455 1455 1454 1453 1452 1451 1450 1450 1449 1448 1447 1447 1446 1445 1444 1443 1443 1442 1441 1440 1440 1439 1438 1438 1437 1437 1437 1436 1436 1435 1435 1435 1434 1434 1434 1433 1433 1433 1433 1433 1433 1433
1490 1490 1489 1488 1487 1486 1485 1484 1484 1483 1482 1481 1480 1478 1478 1477 1476 1475 1474 1474 1473 1472 1472 1471 1471 1470 1469 1469 1467 1467 1465 1464 1463 1462 1461 1460 1459 1459 1458 1457 1456 1455 1455 1454 1453 1452 1451 1451 1450 1449 1448 1447 1447 1446 1445 1444 1443 1442 1442 1441 1440 1439 1438 1437 1437 1436 1435 1435 1434 1433 1433 1433 1432 1432 1432 1431 1431 1431 1431 1431 1430 1430 1430 1430 1430 1430
1488 1488 1487 1487 1486 1484 1483 1482 1482 1482 1481 1479 1478 1477 1476 1475 1474 1473 1472 1472 1471 1471 1470 1469 1469 1468 1468 1467 1466 1465 1463 1462 1461 1460 1459 1458 1457 1456 1455 1455 1454 1453 1452 1451 1451 1450 1449 1448 1447 1447 1446 1445 1444 1443 1442 1441 1440 1439 1439 1438 1437 1436 1435 1434 1433 1433 1432 1432 1431 1431 1430 1430 1429 1429 1429 1428 1428 1428 1428 1428 1427 1427 1427 1428 1428 1428
1487 1486 1485 1485 1484 1483 1482 1480 1480 1480 1479 1478 1477 1475 1474 1473 1472 1471 1471 1470 1469 1469 1468 1468 1467 1467 1466 1465 1464 1462 1461 1460 1459 1458 1457 1456 1455 1454 1453 1452 1452 1451 1450 1449 1448 1447 1447 1446 1445 1444 1443 1442 1442 1441 1440 1439 1438 1437 1436 1435 1434 1433 1432 1432 1431 1430 1430 1429 1428 1428 1427 1427 1427 1426 1426 1426 1426 1425 1425 1425 1425 1425 1425 1425 1425 1425
1486 1485 1483 1482 1482 1481 1480 1479 1478 1478 1477 1476 1475 1474 1473 1472 1471 1469 1469 1468 1468 1467 1467 1466 1465 1464 1463 1463 1462 1461 1459 1457 1457 1456 1455 1454 1453 1452 1451 1450 1449 1448 1448 1447 1446 1445 1445 1444 1443 1442 1441 1441 1440 1439 1438 1437 1436 1435 1434 1433 1432 1431 1430 1429 1428 1428 1427 1427 1426 1425 1425 1424 1424 1424 1424 1423 1423 1423 1423 1423 1423 1422 1422 1423 1423 1423
1483 1483 1482 1481 1480 1479 1478 1477 1477 1476 1475 1474 1473 1472 1472 1471 1470 1469 1467 1467 1466 1466 1466 1465 1464 1463 1461 1460 1459 1458 1457 1456 1454 1454 1453 1452 1451 1450 1449 1448 1447 1446 1446 1445 1444 1443 1442 1442 1441 1440 1439 1438 1437 1437 1436 1435 1434 1432 1432 1431 1430 1429 1428 1427 1426 1425 1424 1424 1423 1423 1422 1422 1422 1422 1422 1421 1421 1421 1421 1421 1420 1420 1420 1420 1420 1421
1482 1481 1480 1479 1478 1477 1476 1476 1475 1474 1473 1473 1472 1471 1471 1470 1469 1468 1467 1466 1465 1464 1464 1463 1462 1461 1460 1458 1457 1456 1455 1454 1453 1452 1451 1450 1449 1448 1447 1446 1445 1444 1443 1442 1442 1441 1441 1440 1439 1438 1437 1436 1435 1434 1433 1432 1431 1430 1429 1428 1427 1426 1425 1424 1424 1423 1422 1422 1421 1421 1420 1420 1420 1419 1419 1419 1419 1418 1418 1418 1418 1417 1417 1417 1417 1417
1480 1479 1478 1477 1477 1476 1475 1474 1473 1473 1472 1472 1471 1471 1470 1469 1468 1467 1466 1465 1464 1463 1462 1461 1460 1459 1458 1457 1456 1455 1453 1452 1451 1450 1449 1448 1447 1446 1445 1444 1443 1442 1442 1440 1440 1439 1438 1437 1437 1436 1435 1434 1433 1432 1431 1430 1429 1428 1427 1426 1425 1424 1423 1422 1421 1421 1420 1419 1419 1418 1418 1417 1417 1417 1417 1417 1416 1416 1416 1415 1415 1415 1415 1414 1414 1414
1478 1477 1477 1476 1475 1474 1474 1473 1473 1472 1472 1471 1470 1469 1468 1467 1467 1466 1465 1464 1463 1463 1462 1461 1459 1458 1457 1456 1455 1454 1453 1451 1450 1449 1448 1447 1447 1445 1444 1442 1441 1441 1440 1438 1437 1437 1436 1435 1434 1433 1432 1432 1431 1430 1429 1428 1427 1426 1424 1423 1422 1421 1420 1419 1419 1418 1417 1417 1416 1416 1415 1415 1415 1414 1414 1414 1413 1413 1413 1412 1412 1412 1412 1412 1411 1411
1477 1476 1476 1475 1474 1474 1473 1472 1472 1471 1470 1470 1469 1468 1467 1467 1466 1465 1464 1463 1462 1462 1461 1459 1458 1457 1456 1455 1454 1453 1452 1450 1449 1447 1447 1446 1445 1444 1442 1441 1439 1438 1438 1437 1435 1434 1434 1433 1432 1431 1430 1429 1428 1427 1427 1425 1424 1423 1422 1421 1420 1419 1418 1417 1416 1416 1415 1414 1413 1413 1413 1412 1412 1412 1411 1411 1411 1410 1410 1410 1409 1409 1409 1409 1408 1408
1476 1475 1474 1474 1473 1472 1472 1471 1471 1470 1469 1468 1468 1467 1466 1465 1465 1464 1464 1463 1462 1461 1460 1458 1457 1455 1454 1454 1453 1452 1451 1449 1447 1446 1445 1443 1442 1442 1441 1439 1437 1436 1435 1434 1433 1432 1432 1431 1430 1429 1427 1427 1426 1425 1424 1423 1422 1421 1420 1418 1417 1416 1415 1414 1414 1413 1412 1412 1411 1411 1410 1410 1409 1409 1409 1408 1408 1407 1407 1407 1407 1407 1406 1406 1406 1405
1475 1474 1473 1472 1472 1471 1470 1470 1469 1469 1468 1467 1467 1466 1465 1465 1464 1463 1463 1462 1461 1460 1459 1458 1456 1454 1452 1451 1451 1451 1450 1448 1446 1444 1443 1441 1440 1440 1439 1437 1435 1434 1433 1432 1431 1430 1429 1428 1427 1426 1425 1424 1423 1422 1421 1420 1419 1418 1417 1416 1415 1414 1413 1412 1411 1410 1410 1409 1408 1408 1407 1407 1407 1406 1406 1406 1405 1405 1405 1404 1404 1404 1403 1403 1403 1402
1473 1472 1472 1471 1471 1470 1469 1469 1468 1468 1467 1466 1465 1465 1464 1464 1463 1462 1462 1461 1460 1459 1457 1457 1456 1454 1452 1450 1449 1449 1449 1447 1444 1442 1441 1439 1437 1437 1437 1435 1433 1432 1431 1430 1429 1428 1427 1426 1425 1423 1422 1421 1420 1419 1418 1417 1416 1415 1414 1413 1412 1411 1410 1409 1408 1408 1407 1407 1406 1405 1405 1404 1404 1404 1403 1403 1402 1402 1402 1401 1401 1401 1400 1400 1400 1399
1472 1471 1471 1470 1469 1468 1468 1467 1467 1466 1466 1465 1464 1464 1463 1462 1462 1461 1460 1459 1458 1457 1456 1455 1454 1452 1451 1449 1447 1447 1447 1445 1443 1441 1439 1437 1435 1435 1435 1433 1432 1430 1429 1428 1427 1426 1425 1424 1422 1421 1420 1419 1417 1417 1415 1414 1413 1412 1411 1410 1409 1408 1407 1407 1406 1405 1404 1404 1403 1403 1402 1402 1401 1401 1400 1400 1399 1399 1399 1398 1398 1398 1397 1397 1397 1396
1470 1469 1469 1468 1467 1467 1466 1466 1466 1465 1465 1464 1463 1463 1462 1461 1460 1460 1459 1458 1457 1456 1455 1454 1452 1451 1449 1447 1446 1445 1444 1443 1441 1439 1437 1435 1433 1432 1432 1432 1430 1428 1427 1426 1425 1424 1423 1421 1419 1418 1417 1416 1415 1413 1412 1411 1410 1409 1408 1407 1407 1406 1405 1404 1403 1402 1402 1401 1400 1400 1399 1399 1398 1397 1397 1397 1396 1396 1396 1395 1395 1395 1394 1394 1393 1393
1468 1467 1467 1467 1466 1465 1464 1464 1464 1464 1463 1463 1462 1461 1460 1460 1459 1458 1457 1456 1455 1454 1453 1452 1451 1449 1448 1446 1444 1442 1442 1441 1439 1437 1435 1433 1431 1431 1431 1430 1428 1427 1425 1423 1423 1422 1420 1418 1417 1416 1414 1413 1412 1411 1410 1408 1407 1407 1406 1405 1404 1403 1402 1401 1400 1400 1399 1398 1397 1397 1396 1396 1395 1394 1394 1393 1393 1392 1392 1392 1392 1392 1391 1391 1391 1390
1466 1465 1465 1465 1464 1464 1463 1462 1462 1462 1462 1461 1461 1460 1459 1458 1457 1457 1456 1455 1454 1452 1452 1450 1449 1447 1446 1444 1442 1441 1440 1439 1438 1436 1433 1431 1429 1428 1429 1428 1426 1424 1422 1421 1420 1419 1418 1416 1414 1413 1412 1411 1410 1408 1407 1406 1405 1404 1403 1402 1401 1400 1399 1398 1397 1397 1396 1395 1395 1394 1393 1393 1392 1392 1391 1391 1390 1390 1389 1389 1389 1388 1388 1387 1387 1387
1464 1463 1463 1463 1462 1462 1462 1461 1461 1461 1460 1460 1460 1459 1458 1458 1457 1455 1454 1453 1452 1450 1449 1447 1446 1445 1443 1442 1440 1439 1438 1438 1437 1435 1433 1430 1427 1426 1427 1426 1425 1423 1421 1419 1418 1417 1415 1414 1412 1411 1409 1408 1407 1406 1405 1404 1403 1402 1401 1399 1398 1397 1397 1396 1395 1394 1393 1392 1392 1391 1390 1390 1389 1388 1388 1387 1387 1387 1386 1385 1385 1384 1384 1383 1383 1383
1462 1462 1461 1461 1461 1460 1460 1460 1459 1459 1459 1459 1459 1458 1457 1457 1455 1454 1452 1451 1450 1448 1447 1445 1444 1442 1441 1440 1438 1437 1437 1436 1435 1433 1432 1429 1427 1425 1425 1424 1423 1421 1419 1418 1417 1415 1413 1411 1410 1408 1407 1406 1405 1404 1403 1402 1401 1399 1398 1397 1396 1395 1394 1393 1392 1391 1390 1389 1389 1388 1387 1387 1386 1386 1385 1384 1383 1383 1382 1382 1381 1381 1380 1380 1379 1379
1461 1460 1460 1459 1459 1459 1459 1459 1459 1459 1459 1459 1458 1457 1455 1454 1453 1452 1451 1449 1448 1446 1445 1443 1442 1440 1439 1438 1437 1436 1435 1434 1433 1432 1430 1428 1425 1424 1423 1423 1422 1419 1417 1416 1415 1413 1411 1409 1407 1406 1405 1404 1402 1402 1401 1399 1398 1397 1396 1394 1393 1392 1391 1390 1389 1388 1388 1387 1386 1385 1384 1384 1383 1382 1381 1381 1380 1379 1379 1378 1378 1377 1377 1377 1376 1376
1459 1459 1459 1458 1458 1459 1459 1459 1459 1458 1458 1457 1455 1454 1453 1452 1451 1449 1448 1447 1446 1445 1443 1442 1440 1438 1437 1436 1435 1434 1433 1432 1432 1430 1429 1427 1424 1422 1421 1421 1420 1418 1415 1413 1412 1411 1409 1407 1405 1404 1403 1401 1400 1399 1398 1397 1396 1394 1393 1392 1391 1390 1389 1388 1387 1386 1385 1384 1383 1382 1381 1380 1380 1379 1378 1377 1377 1376 1376 1375 1375 1374 1374 1373 1373 1372
1458 1457 1457 1457 1457 1457 1457 1456 1455 1455 1455 1454 1453 1452 1451 1450 1448 1447 1446 1445 1444 1443 1442 1440 1438 1437 1436 1434 1433 1432 1432 1431 1430 1429 1428 1426 1424 1421 1419 1419 1418 1416 1414 1412 1410 1409 1407 1405 1403 1401 1400 1399 1397 1396 1395 1394 1393 1392 1391 1390 1389 1388 1387 1385 1384 1383 1382 1381 1380 1379 1378 1377 1377 1376 1375 1375 1374 1373 1373 1372 1372 1372 1371 1371 1370 1369
1457 1456 1456 1456 1455 1455 1455 1454 1454 1453 1452 1452 1451 1450 1449 1447 1446 1445 1444 1443 1442 1441 1440 1439 1437 1436 1434 1433 1432 1430 1430 1429 1428 1428 1427 1425 1423 1420 1419 1418 1417 1415 1413 1410 1407 1406 1405 1403 1401 1399 1397 1396 1395 1394 1392 1392 1391 1389 1388 1387 1386 1385 1384 1382 1382 1380 1379 1378 1377 1376 1375 1374 1374 1373 1372 1372 1371 1371 1370 1370 1369 1369 1368 1367 1367 1365
1455 1455 1455 1454 1454 1453 1453 1452 1452 1451 1450 1450 1449 1448 1447 1446 1444 1443 1442 1442 1441 1440 1438 1437 1436 1435 1433 1432 1430 1429 1428 1427 1427 1427 1425 1424 1422 1419 1418 1417 1416 1414 1412 1408 1405 1402 1402 1401 1400 1398 1396 1395 1393 1392 1391 1389 1388 1387 1385 1384 1383 1382 1381 1380 1378 1377 1376 1375 1374 1373 1372 1372 1371 1370 1369 1369 1368 1368 1367 1367 1366 1366 1365 1364 1363 1362
1453 1453 1453 1452 1452 1452 1451 1450 1450 1449 1448 1447 1447 1446 1445 1444 1442 1442 1441 1440 1439 1438 1437 1436 1434 1433 1432 1431 1429 1427 1426 1427 1426 1425 1424 1422 1420 1418 1417 1415 1414 1413 1411 1408 1404 1401 1398 1397 1398 1397 1396 1393 1392 1390 1388 1387 1385 1384 1382 1381 1380 1378 1378 1377 1376 1374 1373 1372 1372 1371 1370 1369 1368 1367 1367 1366 1365 1365 1364 1363 1363 1363 1362 1361 1360 1359
1451 1451 1451 1451 1450 1450 1449 1448 1448 1447 1446 1446 1445 1444 1443 1442 1441 1440 1439 1438 1437 1436 1435 1434 1433 1432 1431 1430 1429 1427 1425 1425 1425 1424 1423 1421 1418 1416 1415 1414 1412 1411 1411 1409 1407 1402 1397 1394 1393 1394 1394 1392 1390 1388 1386 1385 1383 1382 1380 1378 1377 1376 1375 1374 1373 1372 1371 1370 1369 1368 1367 1366 1365 1365 1364 1363 1362 1362 1361 1361 1360 1360 1359 1358 1357 1356
1450 1450 1449 1449 1448 1448 1447 1447 1446 1445 1444 1444 1443 1442 1441 1440 1439 1438 1437 1437 1436 1435 1434 1432 1432 1431 1430 1429 1428 1426 1424 1423 1423 1423 1422 1420 1417 1415 1414 1412 1411 1409 1409 1408 1407 1405 1400 1394 1391 1390 1390 1389 1387 1386 1384 1383 1382 1380 1378 1377 1375 1373 1372 1372 1371 1369 1368 1367 1366 1365 1364 1363 1362 1362 1361 1360 1360 1359 1358 1358 1357 1357 1356 1355 1354 1353
1449 1448 1448 1447 1447 1447 1446 1445 1444 1443 1443 1442 1441 1440 1439 1439 1438 1437 1436 1435 1434 1433 1432 1431 1430 1429 1428 1427 1426 1424 1422 1422 1421 1421 1420 1418 1416 1414 1412 1411 1410 1408 1407 1406 1405 1404 1401 1396 1392 1388 1387 1386 1385 1384 1382 1381 1380 1378 1377 1375 1373 1372 1370 1370 1368 1367 1366 1364 1363 1362 1361 1360 1360 1359 1358 1357 1357 1356 1356 1355 1355 1354 1354 1353 1352 1351
1448 1447 1447 1447 1446 1445 1444 1444 1443 1442 1441 1440 1439 1438 1437 1437 1436 1435 1434 1433 1432 1432 1431 1430 1429 1428 1427 1426 1424 1422 1421 1421 1420 1420 1419 1417 1415 1413 1411 1410 1408 1407 1405 1404 1403 1402 1399 1396 1393 1390 1386 1383 1382 1382 1381 1379 1378 1377 1375 1374 1372 1370 1368 1367 1366 1365 1363 1362 1361 1359 1358 1357 1357 1356 1355 1354 1354 1353 1353 1352 1352 1351 1351 1350 1349 1348
1447 1446 1446 1445 1445 1444 1443 1442 1441 1440 1439 1438 1438 1437 1436 1435 1434 1433 1432 1432 1431 1430 1429 1428 1427 1427 1426 1425 1423 1421 1420 1419 1419 1418 1417 1416 1414 1412 1410 1408 1407 1406 1404 1402 1401 1400 1397 1395 1392 1390 1387 1383 1380 1379 1379 1378 1377 1375 1373 1372 1370 1368 1367 1365 1364 1362 1361 1359 1358 1357 1356 1355 1354 1353 1352 1352 1351 1350 1350 1349 1349 1348 1348 1348 1347 1347
1446 1445 1445 1444 1443 1442 1442 1441 1440 1439 1438 1437 1436 1435 1434 1433 1432 1432 1431 1430 1429 1428 1428 1427 1426 1425 1424 1423 1422 1420 1418 1418 1417 1416 1415 1414 1412 1411 1408 1406 1405 1404 1403 1401 1399 1398 1396 1393 1391 1389 1387 1383 1379 1377 1376 1376 1375 1374 1372 1370 1368 1367 1365 1364 1362 1361 1359 1357 1356 1355 1354 1352 1352 1351 1350 1349 1348 1348 1347 1347 1346 1346 1346 1345 1345 1345
1445 1444 1443 1442 1442 1441 1440 1439 1438 1437 1436 1435 1435 1434 1433 1432 1431 1430 1429 1428 1428 1427 1426 1426 1425 1424 1423 1422 1420 1419 1417 1416 1415 1414 1413 1412 1411 1409 1407 1405 1403 1403 1402 1400 1398 1396 1394 1392 1389 1387 1385 1383 1380 1377 1374 1373 1372 1371 1369 1368 1367 1365 1363 1362 1360 1359 1357 1355 1354 1352 1352 1350 1349 1348 1347 1347 1346 1345 1344 1344 1343 1343 1343 1342 1342 1341
1443 1442 1442 1441 1440 1439 1438 1437 1436 1436 1435 1434 1433 1432 1431 1430 1429 1428 1428 1427 1426 1426 1425 1424 1423 1422 1421 1420 1419 1417 1416 1414 1412 1412 1411 1409 1408 1407 1406 1403 1402 1401 1400 1399 1397 1395 1393 1391 1388 1386 1383 1381 1378 1376 1374 1372 1370 1368 1367 1365 1364 1362 1361 1359 1358 1357 1355 1354 1352 1351 1349 1348 1347 1346 1345 1344 1343 1342 1342 1341 1340 1340 1340 1339 1338 1338
1442 1441 1440 1439 1438 1437 1437 1436 1435 1434 1433 1432 1431 1430 1429 1428 1427 1427 1426 1425 1425 1424 1423 1422 1422 1421 1419 1418 1417 1415 1413 1412 1410 1409 1408 1407 1406 1405 1404 1402 1400 1398 1398 1397 1396 1394 1392 1390 1388 1385 1382 1379 1376 1374 1372 1371 1369 1367 1364 1362 1361 1360 1359 1358 1357 1356 1354 1352 1351 1349 1347 1346 1345 1344 1343 1342 1341 1340 1339 1338 1337 1337 1337 1336 1335 1334
1440 1439 1439 1438 1437 1436 1435 1434 1433 1432 1431 1430 1429 1428 1427 1427 1426 1425 1425 1424 1423 1423 1422 1421 1420 1419 1417 1416 1415 1413 1411 1410 1408 1407 1406 1405 1404 1403 1402 1400 1398 1397 1396 1394 1393 1392 1391 1388 1386 1383 1381 1379 1376 1372 1370 1368 1367 1365 1363 1361 1359 1357 1356 1356 1355 1353 1352 1350 1349 1347 1345 1344 1343 1342 1340 1339 1338 1337 1337 1336 1335 1334 1334 1333 1332 1331
1439 1438 1437 1437 1436 1435 1434 1433 1432 1431 1430 1429 1427 1427 1426 1425 1424 1423 1423 1422 1422 1421 1421 1419 1418 1417 1416 1414 1412 1411 1409 1408 1407 1405 1404 1403 1402 1401 1400 1398 1397 1395 1394 1392 1391 1389 1388 1386 1384 1381 1379 1377 1375 1372 1369 1367 1365 1364 1363 1361 1357 1355 1353 1352 1352 1351 1349 1348 1346 1345 1343 1342 1341 1339 1338 1337 1336 1335 1334 1333 1332 1331 1331 1330 1330 1329
1437 1437 1436 1435 1434 1433 1432 1431 1430 1429 1428 1427 1426 1425 1424 1423 1423 1422 1422 1421 1420 1420 1419 1418 1417 1415 1413 1412 1411 1409 1408 1406 1405 1404 1402 1401 1400 1399 1398 1396 1395 1393 1392 1390 1388 1387 1385 1384 1382 1379 1377 1375 1373 1370 1367 1364 1363 1362 1361 1359 1356 1353 1350 1349 1349 1349 1347 1346 1344 1343 1342 1340 1338 1337 1336 1335 1333 1332 1332 1331 1330 1329 1328 1327 1327 1326
1436 1435 1434 1434 1432 1432 1431 1430 1428 1427 1427 1426 1425 1424 1423 1422 1422 1421 1420 1419 1419 1418 1417 1416 1415 1413 1411 1409 1408 1407 1406 1405 1404 1402 1401 1400 1398 1397 1396 1394 1393 1392 1390 1388 1386 1384 1382 1381 1379 1377 1375 1373 1372 1369 1366 1362 1360 1359 1358 1357 1355 1353 1349 1346 1346 1346 1345 1344 1342 1341 1339 1337 1336 1334 1333 1332 1331 1329 1328 1327 1327 1326 1325 1324 1323 1322
1435 1434 1433 1432 1431 1430 1429 1428 1427 1426 1425 1424 1423 1422 1422 1421 1421 1420 1419 1418 1417 1417 1416 1414 1413 1411 1409 1407 1406 1405 1404 1403 1402 1401 1399 1398 1397 1395 1394 1392 1391 1390 1388 1387 1385 1382 1380 1378 1376 1375 1373 1372 1370 1367 1364 1361 1358 1357 1355 1354 1353 1352 1349 1346 1344 1343 1342 1340 1339 1338 1337 1335 1334 1332 1330 1329 1327 1326 1325 1324 1323 1322 1321 1321 1320 1319
1434 1433 1432 1431 1430 1429 1427 1427 1426 1425 1424 1423 1422 1422 1421 1420 1419 1419 1418 1417 1416 1415 1414 1412 1411 1409 1407 1406 1404 1403 1402 1401 1400 1398 1397 1396 1395 1393 1392 1390 1389 1387 1386 1384 1382 1381 1378 1376 1373 1372 1371 1369 1367 1365 1362 1359 1357 1354 1352 1351 1350 1349 1346 1344 1342 1341 1339 1337 1336 1335 1334 1333 1332 1330 1327 1326 1324 1323 1322 1321 1320 1319 1317 1317 1316 1316
1432 1432 1431 1430 1428 1427 1426 1425 1424 1423 1422 1422 1421 1420 1420 1419 1418 1417 1417 1415 1414 1413 1412 1411 1410 1408 1406 1404 1402 1401 1399 1398 1397 1396 1395 1394 1393 1392 1390 1388 1387 1385 1383 1382 1380 1378 1377 1374 1372 1370 1368 1366 1364 1362 1360 1358 1355 1353 1350 1348 1347 1346 1343 1342 1340 1339 1337 1336 1334 1333 1332 1331 1330 1328 1326 1323 1322 1320 1319 1318 1317 1316 1315 1314 1313 1312
1432 1430 1429 1428 1427 1426 1425 1424 1423 1422 1422 1421 1420 1419 1419 1418 1417 1416 1415 1414 1413 1412 1411 1409 1408 1407 1405 1403 1402 1400 1398 1396 1394 1393 1392 1392 1391 1389 1388 1386 1385 1383 1382 1380 1378 1376 1374 1372 1370 1368 1367 1364 1361 1358 1356 1355 1354 1352 1349 1347 1345 1343 1341 1339 1338 1337 1336 1334 1332 1330 1329 1329 1327 1326 1323 1321 1319 1317 1316 1315 1314 1313 1312 1311 1310 1309
1430 1429 1428 1427 1426 1425 1424 1423 1422 1422 1421 1420 1419 1418 1418 1417 1416 1415 1414 1413 1412 1410 1409 1408 1406 1405 1403 1402 1400 1399 1397 1395 1393 1392 1390 1389 1388 1387 1385 1384 1382 1381 1379 1377 1376 1373 1372 1369 1368 1367 1365 1363 1360 1356 1353 1352 1351 1350 1347 1345 1343 1341 1339 1337 1335 1334 1333 1332 1330 1328 1327 1326 1325 1323 1320 1318 1316 1314 1313 1312 1312 1311 1310 1309 1307 1306
1429 1428 1427 1426 1425 1424 1423 1422 1421 1420 1420 1419 1418 1417 1417 1416 1415 1414 1412 1412 1410 1409 1407 1406 1405 1403 1402 1400 1399 1397 1396 1395 1393 1391 1389 1388 1386 1385 1383 1381 1380 1378 1376 1375 1373 1371 1369 1367 1366 1364 1363 1361 1358 1355 1351 1349 1348 1347 1346 1344 1342 1339 1337 1334 1333 1332 1331 1329 1327 1326 1325 1324 1323 1321 1319 1317 1314 1311 1310 1309 1308 1308 1307 1306 1305 1304
1428 1427 1426 1425 1424 1423 1422 1421 1420 1419 1418 1417 1417 1416 1415 1414 1413 1412 1411 1410 1409 1407 1406 1405 1403 1402 1400 1398 1397 1396 1395 1393 1391 1389 1388 1386 1385 1383 1381 1379 1377 1376 1374 1372 1370 1368 1367 1364 1362 1362 1361 1360 1357 1355 1351 1348 1346 1345 1344 1342 1340 1338 1336 1333 1331 1330 1329 1327 1326 1324 1323 1322 1321 1319 1317 1315 1312 1309 1307 1306 1305 1304 1304 1303 1302 1301
1427 1426 1425 1424 1423 1422 1421 1420 1419 1418 1417 1416 1415 1414 1413 1412 1412 1411 1410 1408 1407 1406 1405 1403 1402 1400 1399 1397 1396 1394 1393 1392 1390 1388 1386 1385 1383 1381 1379 1377 1376 1374 1372 1370 1368 1366 1364 1362 1359 1357 1357 1357 1357 1355 1352 1348 1345 1343 1342 1340 1339 1337 1335 1332 1330 1328 1327 1326 1324 1322 1321 1320 1318 1317 1316 1314 1311 1307 1305 1303 1302 1301 1301 1301 1300 1299